Home > Weather > Coral Harbour > Past weeks

Flag for Canada Weather for the Past 2 Weeks in Coral Harbour, Nunavut, Canada

Now
-27 °F

Snow flurries. Passing clouds.


Feels Like: -49 °F
Forecast: -33 / -23 °F
Wind: 9 mph from North

Location: Coral Harbour

Current Time: Feb 8, 2016 at 8:45:20 PM

Latest Report: Feb 8, 2016 at 8:00 PM


Visibility: 15 mi

Pressure: 30.20 "Hg

Humidity: 67%

Dew point: -35 °F

Location of Coral HarbourLocation

Historic Weather in Coral Harbour — Graph

°F

Coral Harbour Temperature Yesterday

Maximum temperature yesterday: -18 °F (at 2:00 PM)
Minimum temperature yesterday: -27 °F (at 1:00 AM)
Average temperature yesterday: -23 °F

High & Low Weather Summary for the Past Weeks

 TemperatureHumidityPressure
High-6 °F (Jan 31, 11:00 AM)84% (Jan 30, 3:00 AM)30.21 "Hg (Jan 30, 3:00 AM)
Low-35 °F (Jan 27, 7:00 PM)55% (Jan 24, 8:00 PM)29.45 "Hg (Jan 26, 11:00 AM)
Average-23 °F70%29.85 "Hg
* Reported Jan 24 7:00 PM — Feb 8 7:00 PM, Coral Harbour, Weather by CustomWeather, © 2016

Note: Actual official high and low records may vary slightly from our data, if they occured in-between our weather recording intervals... More about our weather records

Advertising

Coral Harbour Weather History for the Previous 24 Hours

 ConditionsComfort  
Time TempWeatherWind HumidityBarometerVisibility
7:00 PM
Mon, Feb 8
-26 °FSnow flurries. Passing clouds.10 mph67%30.20 "Hg15 mi
6:00 PM-26 °FSnow flurries. Passing clouds.10 mph67%30.20 "Hg15 mi
5:00 PM-24 °FSnow flurries. Passing clouds.10 mph68%30.21 "Hg15 mi
4:00 PM-22 °FSnow flurries. Scattered clouds.9 mph68%30.21 "Hg15 mi
3:00 PM-18 °FSnow flurries. Broken clouds.5 mph69%30.20 "Hg15 mi
2:00 PM-18 °FSnow flurries. Overcast.9 mph69%30.20 "Hg15 mi
1:00 PM-20 °FSnow flurries. Mostly cloudy.5 mph68%30.20 "Hg15 mi
12:00 PM-22 °FSnow flurries. Partly sunny.10 mph68%30.20 "Hg15 mi
11:00 AM-20 °FSnow flurries. Partly sunny.6 mph68%30.18 "Hg15 mi
10:00 AM-20 °FSnow flurries. Partly sunny.8 mph68%30.18 "Hg15 mi
9:00 AM-20 °FSnow flurries. Overcast.12 mph68%30.18 "Hg15 mi
8:00 AM-22 °FSnow flurries. Overcast.9 mph75%30.18 "Hg15 mi
7:00 AM-22 °FSnow flurries. Passing clouds.7 mph68%30.17 "Hg15 mi
5:00 AM-24 °FSnow flurries. Clear.7 mph68%30.18 "Hg15 mi
4:00 AM-24 °FSnow flurries. Clear.9 mph68%30.18 "Hg15 mi
3:16 AM-26 °FSnow flurries. Clear.3 mph67%30.17 "Hg15 mi
2:00 AM-29 °FSnow flurries. Clear.10 mph74%30.17 "Hg15 mi
1:00 AM-27 °FSnow flurries. Clear.12 mph67%30.16 "Hg15 mi
12:00 AM-27 °FSnow flurries. Clear.8 mph74%30.15 "Hg15 mi
11:00 PM
Sun, Feb 7
-27 °FSnow flurries. Clear.13 mph67%30.14 "Hg15 mi
10:00 PM-26 °FSnow flurries. Clear.18 mph67%30.14 "Hg15 mi
9:00 PM-26 °FSnow flurries. Clear.10 mph67%30.14 "Hg15 mi
8:00 PM-24 °FSnow flurries. Clear.15 mph68%30.14 "Hg15 mi
Weather by CustomWeather, © 2016

See weather overviewHow to use our weather pages